[[{"header":{"parameterUnit":"m.s-1","parameterCategory":1,"la1":30.2992,"la2":30.254,"lo1":-89.0895,"lo2":-89.0443,"dy":0.0025,"dx":0.0025,"nx":19,"ny":19,"refTime":"2026-04-01T21:00:00:Z","depth":0,"parameterNumber":2,"parameterNumberName":"U-component_of_WINDS"},"data":[0,0,0,-4.412,-4.412,-4.4099,-4.4099,-4.4092,-4.4093,0,0,0,0,0,0,0,0,0,0,0,-4.4138,-4.4138,-4.412,-4.412,-4.4099,-4.4099,-4.4092,-4.4093,0,0,0,0,0,0,0,0,0,0,0,-4.4138,-4.4138,-4.4139,-4.4119,-4.4099,-4.4099,-4.4092,-4.4101,0,0,0,0,0,0,0,0,0,0,-4.4117,-4.4146,-4.4138,-4.4139,-4.4119,-4.4099,-4.4099,-4.4101,-4.41,-4.411,0,-4.4123,0,-4.4108,-4.4093,-4.4093,0,0,0,-4.411,-4.4147,-4.413,-4.4139,-4.4119,-4.4099,-4.4106,-4.41,-4.41,-4.411,-4.4123,-4.4122,-4.4108,-4.4094,-4.4094,-4.4184,-4.4185,0,0,-4.4111,-4.4141,-4.4131,-4.413,-4.4135,-4.4106,-4.4105,-4.41,-4.4115,-4.4123,-4.4121,-4.4108,-4.4094,-4.4094,-4.4183,-4.4184,0,0,0,-4.4121,-4.4142,-4.4125,-4.4131,-4.4126,-4.4106,-4.4104,-4.4115,-4.4108,-4.4121,-4.4108,-4.4094,-4.4094,-4.4182,-4.4184,-4.4253,0,0,0,-4.4121,-4.4147,-4.4126,-4.4144,-4.4127,-4.4121,-4.4121,-4.4108,-4.4106,-4.4108,-4.4094,-4.4094,-4.4181,-4.4183,-4.4249,-4.428,0,0,0,-4.4135,-4.4149,-4.415,-4.4145,-4.4138,-4.412,-4.4111,-4.4107,-4.4099,-4.4094,-4.4094,-4.4181,-4.4183,-4.4245,-4.4274,-4.4311,0,0,0,-4.4158,-4.4212,-4.4152,-4.4207,-4.4138,-4.4164,-4.4111,-4.4129,-4.4133,-4.4094,-4.4181,-4.4184,-4.4244,-4.427,-4.4307,-4.4345,-4.4364,0,0,-4.4242,-4.4223,-4.4254,-4.4199,-4.4243,-4.4165,-4.4219,-4.4195,-4.4168,-4.418,-4.4182,-4.425,-4.4273,-4.431,-4.4467,-4.4483,0,0,0,-4.429,-4.4312,-4.4318,-4.4323,-4.4307,-4.4295,-4.426,-4.4251,-4.426,-4.418,-4.4274,-4.4287,-4.4307,-4.4324,-4.4337,-4.4351,-4.4193,-4.4193,-4.4193,-4.4449,-4.4412,-4.446,-4.4421,-4.4428,-4.4392,-4.4393,-4.4375,-4.4336,-4.4359,-4.4361,-4.4461,-4.4482,-4.4491,-4.4507,-4.4381,-4.4381,-4.4381,-4.4382,-4.4567,-4.4591,-4.454,-4.4566,-4.4528,-4.455,-4.4519,-4.4491,-4.4506,-4.4456,-4.4472,-4.4419,-4.451,-4.4521,-4.4387,-4.4386,-4.4385,-4.4385,-4.4384,-4.4664,-4.4669,-4.4658,-4.4663,-4.4671,-4.4631,-4.4648,-4.4613,-4.458,-4.4596,-4.4593,-4.4592,-4.4584,-4.4598,-4.4599,-4.4599,-4.4599,-4.4599,-4.46,-4.4767,-4.4753,-4.4771,-4.4761,-4.476,-4.4755,-4.4721,-4.472,-4.4708,-4.4681,-4.4681,-4.4639,-4.4527,-4.4497,-4.4605,-4.4604,-4.4603,-4.4603,-4.4602,-4.4894,-4.486,-4.4888,-4.4888,-4.4872,-4.4882,-4.4839,-4.4839,-4.4833,-4.4842,-4.4798,-4.4722,-4.4699,-4.4688,-4.4663,-4.4807,-4.4807,-4.4807,-4.4807,-4.4973,-4.496,-4.4981,-4.4982,-4.498,-4.4944,-4.4977,-4.4953,-4.4922,-4.4916,-4.4891,-4.4857,-4.4848,-4.483,-4.4816,-4.4792,-4.4966,-4.4966,-4.4966,-4.5048,-4.5033,-4.5067,-4.5038,-4.5024,-4.5012,-4.5042,-4.5046,-4.5004,-4.4972,-4.491,-4.4904,-4.4848,-4.4832,-4.4794,-4.4773,-4.4729,0,0]},{"header":{"parameterUnit":"m.s-1","parameterCategory":1,"la1":30.2992,"la2":30.254,"lo1":-89.0895,"lo2":-89.0443,"dy":0.0025,"dx":0.0025,"nx":19,"ny":19,"refTime":"2026-04-01T21:00:00:Z","depth":0,"parameterNumber":3,"parameterNumberName":"V-component_of_WINDS"},"data":[0,0,0,3.295,3.2951,3.3001,3.3002,3.3046,3.3046,0,0,0,0,0,0,0,0,0,0,0,3.2925,3.2925,3.295,3.2951,3.3001,3.3002,3.3046,3.3046,0,0,0,0,0,0,0,0,0,0,0,3.2925,3.2925,3.2925,3.2951,3.3001,3.3002,3.3046,3.3015,0,0,0,0,0,0,0,0,0,0,3.2969,3.2936,3.2925,3.2925,3.2952,3.3001,3.3002,3.3014,3.3017,3.3016,0,3.3013,0,3.3031,3.3048,3.3048,0,0,0,3.2958,3.2933,3.2957,3.2925,3.2952,3.3001,3.2981,3.3016,3.3019,3.302,3.3014,3.3016,3.3031,3.3049,3.3049,3.3025,3.3024,0,0,3.2955,3.2928,3.2954,3.2959,3.2952,3.2979,3.2982,3.3018,3.3009,3.3014,3.3018,3.3032,3.3049,3.3049,3.3025,3.3025,0,0,0,3.2943,3.2925,3.2949,3.2956,3.2967,3.298,3.2984,3.3008,3.3018,3.3018,3.3033,3.3049,3.3049,3.3026,3.3025,3.2978,0,0,0,3.2941,3.2918,3.2947,3.293,3.2966,3.2988,3.2972,3.3015,3.302,3.3033,3.3049,3.3049,3.3026,3.3025,3.2981,3.296,0,0,0,3.2925,3.2916,3.292,3.2929,3.295,3.2988,3.3001,3.3017,3.3028,3.3048,3.305,3.3027,3.3026,3.2983,3.2964,3.2948,0,0,0,3.2899,3.2875,3.2919,3.2898,3.2949,3.296,3.3001,3.3009,3.302,3.3049,3.3026,3.3025,3.2984,3.2966,3.295,3.293,3.2919,0,0,3.2854,3.2869,3.2859,3.29,3.2896,3.2954,3.2943,3.2978,3.3003,3.3016,3.3016,3.298,3.2964,3.2948,3.2865,3.2856,0,0,0,3.2835,3.2828,3.2833,3.2844,3.2873,3.2896,3.2936,3.2949,3.2962,3.3005,3.297,3.2961,3.2953,3.2945,3.2937,3.2932,3.302,3.302,3.302,3.273,3.2768,3.2754,3.2798,3.2808,3.2852,3.2864,3.2889,3.2921,3.2912,3.2916,3.2861,3.285,3.2845,3.2839,3.2908,3.2908,3.2907,3.2907,3.2668,3.2664,3.2711,3.2715,3.2754,3.2757,3.2799,3.2822,3.283,3.2861,3.2855,3.2886,3.2834,3.2831,3.2904,3.2905,3.2905,3.2905,3.2906,3.2604,3.2609,3.2628,3.2651,3.2663,3.2708,3.2715,3.2749,3.2781,3.2776,3.2785,3.2786,3.2792,3.2778,3.2777,3.2777,3.2777,3.2777,3.2777,3.253,3.2553,3.2557,3.2587,3.2601,3.2622,3.2668,3.2681,3.2705,3.2729,3.2729,3.2762,3.2822,3.2837,3.2774,3.2775,3.2775,3.2775,3.2775,3.2455,3.2478,3.2483,3.2497,3.2537,3.2548,3.2593,3.2618,3.2634,3.2636,3.2671,3.271,3.2727,3.2733,3.2746,3.2663,3.2663,3.2663,3.2663,3.2401,3.2415,3.2429,3.2449,3.2473,3.2515,3.2518,3.2553,3.2593,3.2605,3.2622,3.2641,3.2646,3.266,3.2668,3.2681,3.2583,3.2583,3.2583,3.2358,3.2376,3.2373,3.2415,3.245,3.2478,3.2483,3.2503,3.2552,3.2581,3.2616,3.2619,3.2651,3.2659,3.2687,3.2699,3.2722,0,0]}]]